SCP
0 0 0 0 0 0 0 0 0 0 0 0 0 0 0 0 0 0 0 0 0 0 0 0 0 0 0 0 0 0 0 0 0 0 0 0 0 0 0 0 0 0 0 0 0 0 0 0 0
0 0 0 0 0 0 0 0 0 0 0 0 0 0 0 0 0 0 0 0 0 0 0 0 0 0 0 0 0 0 0 0 0 0 0 0 0 0 0 0 0 0 0 0 0 0 0 0 0
0 0 0 0 0 0 0 0 0 0 0 0 0 0 0 0 0 0 0 0 0 0 0 0 0 0 0 0 0 0 0 0 0 0 0 0 0 0 0 0 0 0 0 0 0 0 0 0 0
0 0 0 0 0 0 0 0 0 0 0 0 0 0 0 0 0 0 0 0 0 0 0 0 0 0 0 0 0 0 0 0 0 0 0 0 0 0 0 0 0 0 0 0 0 0 0 0 0
0 0 0 0 0 0 0 0 0 0 0 0 0 0 0 0 0 0 0 0 0 0 0 0 0 0 0 0 0 0 0 0 0 0 0 0 0 0 0 0 0 0 0 0 0 0 0 0 0
0 0 0 0 0 0 0 0 0 0 0 0 0 0 0 0 0 0 0 0 0 0 0 0 0 0 0 0 0 0 0 0 0 0 0 0 0 0 0 0 0 0 0 0 0 0 0 0 0
0 0 0 0 0 0 0 0 0 0 0 0 0 0 0 0 0 0 0 0 0 0 0 0 0 0 0 0 0 0 0 0 0 0 0 0 0 0 0 0 0 0 0 0 0 0 0 0 0
0 0 0 0 0 0 0 0 0 0 0 0 0 0 0 0 0 0 0 0 0 0 0 0 0 0 0 0 0 0 0 0 0 0 0 0 0 0 0 0 0 0 0 0 0 0 0 0 0
0 0 0 0 0 0 0 0 0 0 0 0 0 0 0 0 0 0 0 0 0 0 0 0 0 0 0 0 0 0 0 0 0 0 0 0 0 0 0 0 0 0 0 0 0 0 0 0 0
0 0 0 0 0 0 0 0 0 0 0 0 0 0 0 0 0 0 0 0 0 0 0 0 0 0 0 0 0 0 0 0 0 0 0 0 0 0 0 0 0 0 0 0 0 0 0 0 0
0 0 0 0 0 0 0 0 0 0 0 0 0 0 0 0 0 0 0 0 0 0 0 0 0 0 0 0 0 0 0 0 0 0 0 0 0 0 0 0 0 0 0 0 0 0 0 0 0
0 0 0 0 0 0 0 0 0 0 0 0 0 0 0 0 0 0 0 0 0 0 0 0 0 0 0 0 0 0 0 0 0 0 0 0 0 0 0 0 0 0 0 0 0 0 0 0 0
0 0 0 0 0 0 0 0 0 0 0 0 0 0 0 0 0 0 0 0 0 0 0 0 0 0 0 0 0 0 0 0 0 0 0 0 0 0 0 0 0 0 0 0 0 0 0 0 0
0 0 0 0 0 0 0 0 0 0 0 0 0 0 0 0 0 0 0 0 0 0 0 0 0 0 0 0 0 0 0 0 0 0 0 0 0 0 0 0 0 0 0 0 0 0 0 0 0
0 0 0 0 0 0 0 0 0 0 0 0 0 0 0 0 0 0 0 0 0 0 0 0 0 0 0 0 0 0 0 0 0 0 0 0 0 0 0 0 0 0 0 0 0 0 0 0 0
0 0 0 0 0 0 0 0 0 0 0 0 0 0 0 0 0 0 0 0 0 0 0 0 0 0 0 0 0 0 0 0 0 0 0 0 0 0 0 0 0 0 0 0 0 0 0 0 0
0 0 0 0 0 0 0 0 0 0 0 0 0 0 0 0 0 0 0 0 0 0 0 0 0 0 0 0 0 0 0 0 0 0 0 0 0 0 0 0 0 0 0 0 0 0 0 0 0
0 0 0 0 0 0 0 0 0 0 0 0 0 0 0 0 0 0 0 0 0 0 0 0 0 0 0 0 0 0 0 0 0 0 0 0 0 0 0 0 0 0 0 0 0 0 0 0 0
0 0 0 0 0 0 0 0 0 0 0 0 0 0 0 0 0 0 0 0 0 0 0 0 0 0 0 0 0 0 0 0 0 0 0 0 0 0 0 0 0 0 0 0 0 0 0 0 0
0 0 0 0 0 0 0 0 0 0 0 0 0 0 0 0 0 0 0 0 0 0 0 0 0 0 0 0 0 0 0 0 0 0 0 0 0 0 0 0 0 0 0 0 0 0 0 0 0
0 0 0 0 0 0 0 0 0 0 0 0 0 0 0 0 0 0 0 0 0 0 0 0 0 0 0 0 0 0 0 0 0 0 0 0 0 0 0 0 0 0 0 0 0 0 0 0 0
0 0 0 0 0 0 0 0 0 0 0 0 0 0 0 0 0 0 0 0 0 0 0 0 0 0 0 0 0 0 0 0 0 0 0 0 0 0 0 0 0 0 0 0 0 0 0 0 0
0 0 0 0 0 0 0 0 0 0 0 0 0 0 0 0 0 0 0 0 0 0 0 0 0 0 0 0 0 0 0 0 0 0 0 0 0 0 0 0 0 0 0 0 0 0 0 0 0
0 0 0 0 0 0 0 0 0 0 0 0 0 0 0 0 0 0 0 0 0 0 0 0 0 0 0 0 0 0 0 0 0 0 0 0 0 0 0 0 0 0 0 0 0 0 0 0 0
0 0 0 0 0 0 0 0 0 0 0 0 0 0 0 0 0 0 0 0 1 1 1 1 0 0 0 0 0 0 0 0 0 0 0 0 0 0 0 0 0 0 0 0 0 0 0 0 0
0 0 0 0 0 0 0 0 0 0 0 0 0 0 0 0 0 0 0 0 1 1 1 0 0 0 0 0 0 0 0 0 0 0 0 0 0 0 0 0 0 0 0 0 0 0 0 0 0
0 0 0 0 0 0 0 0 0 0 0 0 0 0 0 0 0 0 0 0 0 0 0 0 0 0 0 0 0 0 0 0 0 0 0 0 0 0 0 0 0 0 0 0 0 0 0 0 0
0 0 0 0 0 0 0 0 0 0 0 0 0 0 0 0 0 0 0 0 0 0 0 0 0 0 0 0 0 0 0 0 0 0 0 0 0 0 0 0 0 0 0 0 0 0 0 0 0
0 0 0 0 0 0 0 0 0 0 0 0 0 0 0 0 0 0 0 0 0 0 0 0 0 0 0 0 0 0 0 0 0 0 0 0 0 0 0 0 0 0 0 0 0 0 0 0 0
0 0 0 0 0 0 0 0 0 0 0 0 0 0 0 0 0 0 0 0 0 0 0 0 0 0 0 0 0 0 0 0 0 0 0 0 0 0 0 0 0 0 0 0 0 0 0 0 0
Wind_Speed
9 10 6 2 2 1 3 4 7 6 7 8 8 9 12 12 9 8 2 3 7 9 9 9 10 10 10 10 10 11 11 11 12 12 12 12 12 12 12 12 12 12 12 12 11 11 11 11 10
10 6 4 3 2 1 4 5 7 8 7 6 7 10 12 11 11 8 3 4 8 9 9 9 10 10 10 11 11 11 12 12 12 12 12 12 11 11 12 12 12 12 13 12 12 12 11 11 10
11 7 3 2 1 3 5 7 8 8 6 5 7 9 9 7 9 6 4 5 8 9 10 9 10 10 10 11 11 12 12 12 12 12 13 13 13 12 13 13 13 13 13 13 13 12 11 11 10
5 3 3 0 4 5 6 7 7 7 5 6 7 9 9 9 6 6 5 6 8 9 10 9 10 10 11 11 11 12 12 12 12 12 13 13 14 14 14 13 13 13 13 13 13 12 11 10 9
4 3 1 1 3 4 5 6 6 6 6 7 9 10 9 9 10 8 6 6 8 8 9 9 10 11 12 12 12 12 12 12 12 13 13 13 14 14 14 14 13 13 13 13 13 12 11 10 9
3 2 1 2 3 4 4 4 5 6 7 7 8 10 7 8 7 6 6 6 7 8 9 9 10 11 12 13 13 12 12 12 12 12 12 13 13 14 14 14 13 13 13 13 12 12 10 9 8
3 2 1 2 3 4 4 4 4 5 6 5 6 8 8 8 5 4 6 6 6 7 8 7 7 9 11 13 12 12 11 11 10 10 10 11 12 12 13 13 13 13 13 12 11 10 9 8 7
3 1 1 1 3 3 4 5 5 6 5 5 5 7 7 8 6 5 5 6 5 5 6 7 7 7 7 8 10 10 10 9 9 9 9 9 10 11 12 13 13 12 11 10 9 8 7 6 5
3 1 0 1 2 3 4 4 5 5 5 6 8 10 12 11 8 6 5 5 4 5 4 6 6 6 6 6 8 7 7 7 6 5 6 6 4 5 7 10 11 10 9 8 7 6 6 4 3
1 0 1 3 3 4 4 3 3 4 5 6 10 12 12 9 8 6 5 5 5 4 4 5 5 6 5 5 5 3 3 3 2 3 4 3 3 4 7 8 8 8 7 6 4 4 3 2 1
1 1 3 4 4 3 4 4 3 3 4 5 8 11 10 9 7 6 5 5 5 4 3 5 4 5 5 4 3 2 2 1 2 4 4 3 3 3 4 2 3 3 4 2 2 2 1 2 2
1 2 3 4 3 2 2 3 3 4 4 5 9 10 9 7 6 5 5 5 5 4 3 4 4 5 5 4 3 2 2 2 2 3 4 3 2 2 3 2 2 2 2 2 2 2 3 3 3
2 3 3 3 2 2 2 3 3 4 4 6 9 9 7 6 6 5 5 5 5 5 3 3 4 4 5 4 2 3 2 2 3 2 2 3 2 3 3 3 2 3 2 2 2 3 4 4 5
3 3 3 3 3 2 3 3 3 3 4 6 7 7 7 5 5 5 5 5 5 5 4 4 3 4 5 4 2 3 3 2 3 1 2 4 3 3 3 3 3 3 2 2 3 3 3 3 4
4 4 4 4 4 4 2 3 4 5 5 5 6 6 7 6 5 4 5 5 5 5 4 5 3 3 4 4 3 3 3 3 2 2 2 4 3 3 3 3 3 2 3 3 3 4 3 3 3
7 6 5 5 5 4 4 3 5 5 5 4 4 5 5 5 5 4 4 4 5 5 5 4 3 3 4 4 3 2 2 3 2 2 2 3 3 4 4 3 2 3 2 2 2 3 3 3 3
6 5 5 5 6 5 5 3 5 6 6 5 5 5 6 5 5 5 5 4 4 4 5 5 4 3 4 3 3 3 3 3 2 2 2 2 3 4 4 2 2 3 3 2 3 3 3 3 2
3 4 4 4 6 5 5 3 5 6 6 6 5 5 6 6 5 6 5 4 4 4 5 5 4 3 3 2 2 2 3 2 2 2 2 3 2 3 3 2 3 3 2 2 3 3 3 2 1
4 4 3 2 4 5 5 5 5 6 5 4 4 4 4 6 6 5 6 5 4 4 4 5 5 4 3 2 2 2 2 1 2 2 2 2 2 3 3 2 3 2 2 2 2 2 2 1 1
5 5 4 2 3 4 4 5 6 7 7 6 5 5 4 5 6 6 6 5 4 4 4 5 4 4 4 3 2 2 2 1 2 1 1 2 2 2 2 2 2 2 2 2 2 2 1 1 2
5 4 4 3 3 6 5 6 7 8 7 6 5 5 4 4 6 7 6 5 4 4 5 4 5 5 5 4 2 2 2 1 1 1 1 1 2 2 2 2 2 2 2 1 0 1 1 1 1
4 2 4 5 6 4 6 4 6 9 7 7 5 4 4 4 4 6 6 5 5 4 4 5 5 5 5 5 3 3 3 2 2 1 2 1 2 2 2 2 1 1 2 1 0 1 0 1 0
3 4 6 7 7 7 7 6 4 7 6 6 6 5 5 5 5 5 6 5 5 4 4 4 4 4 5 5 4 3 2 2 1 1 2 2 2 2 2 1 1 1 1 1 1 1 0 0 0
4 6 8 8 6 7 7 6 3 4 5 6 6 6 5 4 4 4 5 4 4 4 4 3 3 4 4 4 4 4 3 2 2 2 1 1 1 1 1 1 1 1 1 1 1 0 0 0 0
6 5 3 5 6 4 3 4 2 4 3 4 6 6 6 5 4 4 4 4 3 4 4 3 4 4 4 4 4 4 3 2 2 2 2 2 1 1 1 1 1 1 1 1 1 0 0 0 0
6 6 4 3 3 2 3 3 4 5 5 5 4 5 5 5 4 4 4 3 3 4 4 3 3 4 4 4 3 4 4 2 2 2 2 2 2 2 2 2 1 2 1 1 1 0 1 1 1
6 5 4 5 7 5 4 3 4 5 6 6 5 5 5 5 5 5 4 4 3 4 3 3 3 4 3 3 3 3 3 3 2 2 2 2 2 2 2 2 2 1 1 1 1 0 1 0 1
6 5 3 4 4 5 4 4 5 7 6 5 5 5 5 5 5 5 4 3 3 3 3 3 4 4 3 3 2 2 2 2 2 2 2 2 2 2 2 1 2 2 2 1 1 0 0 0 1
6 6 4 4 4 4 3 0 4 7 6 6 5 4 4 4 4 5 4 3 2 2 2 3 3 3 3 3 2 2 2 1 2 2 2 2 2 2 2 2 2 2 2 1 1 1 1 1 1
5 5 5 4 4 5 4 1 4 4 6 6 5 5 5 4 3 4 4 4 3 2 2 1 2 2 2 2 2 2 2 1 1 1 1 1 1 2 2 2 2 2 2 1 1 1 1 1 1
Wind_Direction
271 256 247 254 253 197 79 77 79 72 69 59 53 62 65 50 50 87 117 89 92 96 95 73 56 55 57 61 68 69 69 67 65 64 63 64 67 70 73 73 74 77 79 79 79 80 82 83 82
275 269 266 242 251 115 90 88 78 72 79 82 68 71 73 67 72 94 100 88 93 94 88 75 62 60 61 65 71 73 72 71 68 66 64 63 67 76 79 79 78 77 78 78 78 80 83 82 81
267 265 266 266 22 75 92 92 92 85 84 80 74 61 57 69 79 88 106 101 92 89 88 78 67 63 64 70 75 78 76 74 71 68 66 64 66 75 80 81 82 79 77 77 76 76 80 83 82
264 252 247 348 59 61 90 101 106 102 87 76 81 77 70 55 76 97 99 96 95 94 94 85 75 70 72 75 77 79 79 77 74 71 69 68 71 76 80 80 79 79 76 74 74 73 75 79 77
247 253 222 123 81 70 74 91 105 101 91 81 80 87 83 73 86 100 97 94 95 97 100 97 85 82 80 80 82 80 80 78 74 71 72 72 73 76 79 80 79 79 77 75 73 71 71 74 72
266 253 217 149 116 94 77 73 95 96 91 93 97 100 94 97 92 98 98 98 99 100 103 107 97 92 87 86 86 84 80 80 78 75 74 75 77 78 79 79 80 80 79 76 73 71 69 69 66
271 287 223 148 108 99 90 76 80 92 85 76 86 98 111 104 97 100 95 89 95 104 111 114 117 105 98 93 90 86 82 82 85 83 81 81 84 85 83 81 80 79 77 77 77 74 71 68 61
286 294 182 160 113 100 87 90 84 81 78 68 74 99 123 124 126 110 98 96 98 101 112 120 117 116 115 107 97 93 91 88 89 88 87 90 90 87 85 82 81 80 77 77 77 77 75 66 57
271 257 245 116 114 113 105 106 95 97 91 78 68 85 116 129 131 120 106 98 93 95 97 106 115 115 111 111 104 108 107 106 106 103 99 100 94 91 85 86 88 86 84 83 82 81 81 72 58
203 27 56 56 86 109 106 105 120 120 104 94 91 99 117 132 136 129 125 121 110 103 104 105 110 112 108 105 113 118 108 112 110 99 98 92 89 84 87 95 96 93 91 92 83 76 68 57 50
142 120 68 64 72 88 107 103 88 111 101 110 122 124 131 138 134 132 129 117 114 109 100 104 111 113 108 106 107 95 88 90 74 78 87 87 84 97 94 105 111 105 93 75 69 59 44 54 44
112 95 83 83 70 80 94 100 85 75 91 109 126 132 140 140 136 136 132 121 115 103 93 98 105 109 109 107 110 108 93 78 63 62 76 75 72 81 86 83 77 76 59 53 48 41 43 38 45
149 133 116 115 123 117 113 101 102 98 98 106 120 132 142 142 138 137 131 124 120 114 113 101 96 102 106 94 98 105 94 90 83 56 81 78 65 67 74 75 56 55 47 48 47 51 43 39 35
137 133 146 162 159 158 147 145 149 134 126 121 128 138 145 145 147 141 136 132 129 129 129 103 101 107 110 113 113 104 105 86 84 62 70 83 68 61 64 68 59 49 42 42 49 57 51 53 47
166 176 184 192 195 174 191 204 173 163 149 140 142 146 149 154 151 147 146 142 135 137 127 109 107 106 111 111 104 93 103 111 99 84 71 80 82 73 71 62 62 52 41 45 48 44 45 59 58
206 207 203 190 201 194 217 221 149 152 156 154 162 152 149 159 162 158 144 139 137 131 119 115 118 106 97 95 95 92 97 95 93 85 75 85 82 73 75 67 56 55 47 46 58 48 41 45 47
218 211 203 189 188 198 218 214 157 170 173 173 177 168 162 167 170 156 145 144 134 130 123 117 107 99 90 92 100 91 89 85 85 76 62 66 76 79 81 73 64 60 48 37 51 56 51 48 47
228 232 214 197 175 206 218 203 174 174 184 185 182 176 174 171 173 157 145 138 133 128 124 124 124 119 107 89 87 85 80 81 81 78 72 62 63 74 83 86 75 69 59 38 48 59 53 46 32
281 267 258 201 166 218 223 206 187 186 182 188 188 188 189 174 160 145 135 135 140 138 137 131 133 127 113 103 97 100 101 95 86 85 88 83 72 73 81 81 82 77 72 67 58 62 55 33 45
259 264 255 209 195 232 228 224 186 186 185 184 192 191 191 179 152 139 138 143 152 149 147 139 138 130 122 121 120 125 117 116 110 113 110 104 87 77 78 73 86 91 80 62 54 51 46 10 19
250 262 286 278 244 237 241 235 197 183 183 175 191 192 193 184 161 154 152 149 156 158 158 150 143 137 132 129 120 112 101 94 93 127 115 111 101 85 77 77 86 103 103 103 95 68 64 4 340
269 278 271 267 259 243 225 241 196 175 176 176 180 189 181 180 167 153 152 155 159 157 154 152 152 149 143 137 140 148 149 161 170 155 142 144 112 107 102 90 91 96 95 109 139 92 50 99 337
271 273 263 256 258 263 238 245 193 168 176 173 172 177 173 166 160 149 150 156 155 148 143 146 149 146 140 147 148 156 151 159 147 137 142 146 145 150 129 114 98 88 97 115 89 64 29 107 142
260 259 250 242 248 248 228 233 186 171 173 170 165 165 160 148 138 132 129 127 134 133 140 146 143 135 135 146 152 166 164 166 139 139 157 148 140 138 123 112 107 101 95 105 108 101 93 11 9
244 260 251 217 219 229 205 219 137 121 122 143 155 153 149 142 140 127 118 121 125 142 144 150 153 152 158 169 169 171 167 170 169 166 170 157 146 150 159 122 151 133 145 134 122 141 210 215 248
246 245 265 278 270 261 219 210 129 123 126 128 132 139 134 129 124 120 118 124 124 128 144 154 162 164 165 172 178 173 168 169 169 171 169 171 174 178 168 167 174 162 161 130 123 169 240 214 214
259 252 275 290 283 272 217 164 147 151 142 140 136 129 128 126 125 122 122 123 129 135 147 158 165 159 159 170 183 176 168 167 167 180 165 160 174 162 158 167 151 142 140 143 145 176 234 208 221
259 277 274 267 278 267 246 215 172 159 150 142 134 127 133 132 132 126 122 126 132 144 155 157 154 151 156 168 176 168 167 166 166 165 161 177 185 148 158 163 149 149 155 146 137 166 221 188 223
225 233 244 262 276 285 279 125 95 141 149 145 142 138 130 131 135 130 126 122 122 124 135 151 153 149 150 156 165 164 166 164 164 175 178 184 182 161 167 170 167 169 156 158 160 190 191 217 252
269 259 250 252 271 275 279 165 92 110 126 135 136 132 123 113 121 124 126 126 121 119 116 118 139 137 138 141 138 147 148 148 150 173 165 163 178 161 163 173 167 166 156 160 165 204 210 225 248